This demonstration page uses our WeatherBlox Daily Observations layout. Learn more.

Left ArrowRight Arrow

36.19886, -115.1175

Hourly Observations for August 5, 2017

Temp ( °F °C ) Dew Point ( °F °C ) Humidity (%) Winds ( mph kmh ) Pressure ( in mb ) Visibility ( mi km ) Precip ( " mm )
12:21 am 00:21 Cloudy with Thunderstorms 75 23.9 67 19.4 76 76 WNW 13 20 29.85 1011 10 16 N/A
12:44 am 00:44 Partly Cloudy with Light Rain 76 24.4 67 19.4 74 74 W 7 11 29.83 1010 10 16 N/A
12:53 am 00:53 Mostly Clear with Light Rain 75 23.9 68 20 79 79 W 5 7 29.91 1013 10 16 N/A
1:07 am 01:07 Mostly Clear with Thunderstorms 76 24.4 68 20 77 77 WSW 5 7 29.80 1009 10 16 N/A
1:39 am 01:39 Partly Cloudy with Nearby Thunderstorms 77 25 69 20.6 77 77 WSW 5 7 29.80 1009 10 16 N/A
1:53 am 01:53 Mostly Cloudy with Nearby Thunderstorms 77 25 67 19.4 71 71 WSW 9 15 29.85 1011 10 16 N/A
2:11 am 02:11 Mostly Cloudy 77 25 67 19.4 71 71 VRB 6 9 29.77 1008 10 16 N/A
2:53 am 02:53 Clear 76 24.4 67 19.4 74 74 E 5 7 29.87 1011 10 16 N/A
3:53 am 03:53 Clear 76 24.4 67 19.4 74 74 ENE 8 13 29.88 1012 10 16 N/A
4:53 am 04:53 Clear 75 23.9 67 19.4 76 76 NE 3 6 29.90 1012 10 16 N/A
5:53 am 05:53 Mostly Sunny 75 23.9 66 18.9 74 74 WNW 6 9 29.92 1013 10 16 N/A
6:53 am 06:53 Sunny 75 23.9 64 17.8 69 69 WNW 6 9 29.93 1013 10 16 N/A
7:53 am 07:53 Sunny 79 26.1 64 17.8 60 60 NW 3 6 29.93 1014 10 16 N/A
8:53 am 08:53 Mostly Cloudy 81 27.2 62 16.7 53 53 N N/A 29.93 1014 10 16 N/A
9:53 am 09:53 Sunny 83 28.3 63 17.2 51 51 S 3 6 29.93 1014 10 16 N/A
10:53 am 10:53 Sunny 85 29.4 62 16.7 46 46 SSE 7 11 29.92 1013 10 16 N/A
11:53 am 11:53 Sunny 88 31.1 61 16.1 40 40 VRB 5 7 29.91 1013 10 16 N/A
12:53 pm 12:53 Sunny 90 32.2 61 16.1 38 38 SSE 6 9 29.88 1012 10 16 N/A
1:53 pm 13:53 Sunny 93 33.9 60 15.6 33 33 SE 7 11 29.85 1011 10 16 N/A
2:53 pm 14:53 Sunny 95 35 58 14.4 29 29 SE 7 11 29.82 1010 10 16 N/A
3:53 pm 15:53 Sunny 97 36.1 57 13.9 26 26 SSE 3 6 29.78 1009 10 16 N/A
4:53 pm 16:53 Sunny 98 36.7 56 13.3 24 24 undefined N/A 29.76 1008 10 16 N/A
5:53 pm 17:53 Sunny 98 36.7 56 13.3 24 24 E 7 11 29.74 1007 10 16 N/A
6:53 pm 18:53 Sunny 97 36.1 58 14.4 27 27 ESE 10 17 29.74 1007 10 16 N/A
7:53 pm 19:53 Clear 96 35.6 56 13.3 26 26 SE 7 11 29.75 1007 10 16 N/A
8:53 pm 20:53 Clear 94 34.4 58 14.4 30 30 E 8 13 29.77 1008 10 16 N/A
9:53 pm 21:53 Clear 92 33.3 52 11.1 26 26 N N/A 29.78 1008 10 16 N/A
10:53 pm 22:53 Clear 91 32.8 58 14.4 33 33 NE 7 11 29.77 1008 10 16 N/A
11:53 pm 23:53 Clear 90 32.2 57 13.9 33 33 E 12 19 29.79 1009 10 16 N/A

Powered by AerisWeather